Regional Weather Roundup
Issued by NWS

Home | Current Version | Previous Version | Text Only | Print | Product List | Glossary Off
Versions: 1 2 3 4 5 6 7 8 9 10 11 12 13 14 15 16 17 18 19 20 21 22 23 24 25 26 27 28 29 30 31 32 33 34 35 36 37 38 39 40 41 42 43 44 45 46 47 48 49 50

000
ASUS43 KDMX 261007
RWRIA

WEATHER ROUNDUP FOR IOWA
NATIONAL WEATHER SERVICE DES MOINES IA
500 AM CDT SUN APR 26 2015

NOTE: "FAIR" INDICATES FEW OR NO CLOUDS BELOW 12,000 FEET WITH NO
SIGNIFICANT WEATHER AND/OR OBSTRUCTIONS TO VISIBILITY.

* - THESE STATIONS ARE NOT NWS STATIONS...THUS NOT UNDER NWS
QUALITY CONTROL.  THEY ALSO DO NOT REPORT WEATHER SUCH
AS PRECIPITATION OR FOG.

IAZ001>003-012>014-020>022-031>034-043>046-261100-
   NORTHWEST IOWA

CITY           SKY/WX    TMP DP  RH WIND       PRES   REMARKS
CARROLL *      PTCLDY    37  37 100 N6        29.97S WCI  33
CHEROKEE *     PTCLDY    34  34 100 NE5       29.99R WCI  30
DENISON *      PTCLDY    39  39 100 NE6       29.94S WCI  35
LE MARS *      CLEAR     41  37  87 CALM      29.98S
ORANGE CITY *  CLEAR     37  36  93 E3        29.98S
SHELDON *      CLEAR     32  32 100 NE8       29.98S WCI  25
SIOUX CITY     PTCLDY    43  36  76 E6        29.97S
SPENCER        PTCLDY    32  30  92 N3        30.00R FOG
STORM LAKE *   CLEAR     39  37  93 E5        29.99R
$$

IAZ055>058-069>071-079>083-090>094-261100-
   SOUTHWEST IOWA

CITY           SKY/WX    TMP DP  RH WIND       PRES   REMARKS
ATLANTIC *     PTCLDY    39  39 100 NE5       29.95R
AUDUBON *      PTCLDY    41  37  87 NE5       29.96S
CLARINDA *     CLOUDY    43  39  87 NE7       29.95R
COUNCIL BLFS * CLEAR     41  41 100 NE6       29.94R
CRESTON *      CLEAR     39  39 100 NE10      29.93S WCI  32
HARLAN  *      CLEAR     41  41 100 N6        29.98S
LAMONI         CLEAR     42  38  85 NE9       29.92R
RED OAK *      CLEAR     39  37  93 N3        29.95R
SHENANDOAH *   CLOUDY    43  41  93 NE6       29.94R
$$

IAZ047>049-059>061-072>074-084-261100-
   CENTRAL IOWA

CITY           SKY/WX    TMP DP  RH WIND       PRES   REMARKS
AMES           PTCLDY    38  34  85 N5        29.97R WCI  34
ANKENY *       CLEAR     41  37  87 N7        29.97R
CHARITON *     CLOUDY    41  37  87 NE6       29.94R
DES MOINES     MOCLDY    46  37  71 NE6       29.96R
GRINNELL*      PTCLDY    41  36  81 N7        29.96R
KNOXVILLE *    CLOUDY    45  39  81 NE6       29.94R
MARSHALLTOWN   CLEAR     36  33  89 N8        29.97R WCI  30
PELLA *        MOCLDY    43  41  93 NE3       29.96R
PERRY *          N/A     43  39  87 NE6       29.97R
$$

IAZ004>006-015-016-023>025-035-036-261100-
   NORTH CENTRAL IOWA

CITY           SKY/WX    TMP DP  RH WIND       PRES   REMARKS
ALGONA *       CLEAR     36  36 100 CALM      30.00R FOG
CLARION *      CLEAR     34  34 100 NE6       29.99R WCI  29
ESTHERVILLE    CLEAR     32  31  96 N5        29.99R FOG     WCI  27
FORT DODGE *   PTCLDY    37  34  87 N5        29.99S WCI  34
MASON CITY     CLEAR     31  29  92 N5        30.00S FOG     WCI  26
FOREST CITY *  FOG       30  30 100 CALM      29.99R VSB 1/4
IOWA FALLS *     N/A     37  34  87 CALM      29.99R
$$

IAZ007>011-017>019-026>030-037>042-050>054-066-261100-
   NORTHEAST IOWA

CITY           SKY/WX    TMP DP  RH WIND       PRES   REMARKS
CEDAR RAPIDS   CLEAR     39  32  76 NE8       29.95R WCI  33
CHARLES CITY * CLEAR     37  27  65 NE8       30.00R WCI  31
CLINTON *      CLEAR     34  25  69 N10       29.97R WCI  26
DECORAH *      CLEAR     37  18  44 NE3       29.99R
DUBUQUE        CLEAR     35  22  58 NE9       29.96R WCI  28
MONTICELLO *   CLEAR     36  32  87 CALM      29.97R
OELWEIN *      CLEAR     34  27  75 NE6       29.99R WCI  29
WATERLOO       CLEAR     34  29  82 NE7       29.99R WCI  28
$$

IAZ064-065-067-068-078-261100-
   EAST CENTRAL IOWA

CITY           SKY/WX    TMP DP  RH WIND       PRES   REMARKS
DAVENPORT      CLEAR     34  28  79 NE8       29.94R WCI  27
IOWA CITY      CLEAR     40  32  73 NE9       29.96R WCI  34
MT. PLEASANT * PTCLDY    37  36  93 NE6       29.93R WCI  33
MUSCATINE *    CLEAR     36  32  87 CALM      29.94S
QUAD CITIES    CLEAR     36  30  79 CALM      29.93S
$$

IAZ062-063-075>077-085>089-095>099-261100-
   SOUTHEAST IOWA

CITY           SKY/WX    TMP DP  RH WIND       PRES   REMARKS
BURLINGTON     MOCLDY    41  33  73 NE9       29.91S
FAIRFIELD *    CLEAR     39  36  87 NE8       29.94R WCI  34
FORT MADISON * CLEAR     39  34  81 NE6       29.92R WCI  35
KEOKUK *       CLEAR     43  30  61 NE8G14    29.90R
OSKALOOSA *      N/A     39  36  87 NE8       29.94R WCI  34
CENTERVILLE *  CLEAR     39  39 100 NE6       29.94R WCI  35
OTTUMWA        PTCLDY    40  36  86 NE7       29.93R
WASHINGTON *   CLEAR     39  39 100 NE8       29.94R WCI  34
$$

ABBREVIATIONS USED IN REMARKS
   TC - TEMPERATURES IN CELSIUS
  WCI - WIND CHILL INDEX
   HX - HEAT INDEX
  VSB - VISIBILITY
$$



USA.gov is the U.S. government's official web portal to all federal, state and local government web resources and services.